This is the latest recevied weather packets stored in our database for station/object KG4LKY-5. If no packets are shown the sender has not sent any weather packets the latest 10 day(s).
| Time | Temp. | Humidity | Pressure | Rain* | Wind** | Luminosity | Snow |
|---|---|---|---|---|---|---|---|
| 1777989442 | 18.33° C | 48% | 1014.1 hPa | 0 mm | - | - | - |
| 1777988842 | 18.89° C | 51% | 1014.1 hPa | 0 mm | - | - | - |
| 1777988542 | 18.89° C | 51% | 1014.1 hPa | 0 mm | - | - | - |
| 1777987340 | 17.78° C | 51% | 1014.2 hPa | 0 mm | - | - | - |
| 1777986738 | 17.78° C | 51% | 1014.3 hPa | 0 mm | - | - | - |
| 1777986438 | 18.33° C | 50% | 1014.2 hPa | 0 mm | - | - | - |
| 1777986138 | 18.33° C | 52% | 1014.2 hPa | 0 mm | - | - | - |
| 1777985837 | 17.78° C | 51% | 1014 hPa | 0 mm | - | - | - |
| 1777985537 | 17.78° C | 54% | 1014 hPa | 0 mm | - | - | - |
| 1777985237 | 16.67° C | 55% | 1014 hPa | 0 mm | - | - | - |
| 1777984937 | 17.22° C | 54% | 1013.9 hPa | 0 mm | - | - | - |
| 1777984636 | 17.22° C | 55% | 1013.8 hPa | 0 mm | - | - | - |
| 1777984336 | 16.67° C | 57% | 1013.7 hPa | 0 mm | - | - | - |
| 1777983735 | 16.67° C | 58% | 1013.6 hPa | 0 mm | - | - | - |
| 1777982835 | 16.67° C | 58% | 1013.7 hPa | 0 mm | - | - | - |
| 1777982534 | 16.11° C | 58% | 1013.7 hPa | 0 mm | - | - | - |
| 1777982234 | 15.56° C | 60% | 1013.7 hPa | 0 mm | - | - | - |
| 1777981332 | 15.56° C | 60% | 1013.7 hPa | 0 mm | - | - | - |
| 1777981032 | 15° C | 64% | 1013.7 hPa | 0 mm | - | - | - |
| 1777980431 | 14.44° C | 63% | 1013.6 hPa | 0 mm | - | - | - |
| 1777979830 | 14.44° C | 62% | 1013.3 hPa | 0 mm | - | - | - |
| 1777979231 | 14.44° C | 62% | 1013 hPa | 0 mm | - | - | - |
| 1777978929 | 14.44° C | 63% | 1013 hPa | 0 mm | - | - | - |
| 1777978028 | 14.44° C | 65% | 1012.9 hPa | 0 mm | - | - | - |
| 1777977728 | 15° C | 65% | 1012.8 hPa | 0 mm | - | - | - |
* Rain since midnight (hover to see other rain measurements)
** Current wind speed in m/s (hover to see current wind gust speed)